EW1036 Weather Reports


Display with metric or nautical units.
time (UTC)temp
F
wind
direction
speed
MPH
gust
MPH
rain 1hr
in
rain 24hr
in
rain mn
in
humidity
%
barometer
mb
20260905165532 90 0 0.0 1.0 0.00 0.00 0.00 78 1010.7
20260905165033 92 0 0.0 1.0 0.00 0.00 0.00 78 1010.8
20260905164549 91 0 0.0 1.0 0.00 0.00 0.00 76 1010.9
20260905164034 91 0 0.0 0.0 0.00 0.00 0.00 77 1011.0
20260905163535 92 0 0.0 0.0 0.00 0.00 0.00 77 1011.1
20260905163057 91 0 0.0 0.0 0.00 0.00 0.00 80 1011.3
20260905162535 91 0 0.0 0.0 0.00 0.00 0.00 76 1011.3
20260905162032 92 0 0.0 0.0 0.00 0.00 0.00 80 1011.4
20260905161555 92 0 0.0 0.0 0.00 0.00 0.00 73 1011.5
20260905161032 91 0 0.0 0.0 0.00 0.00 0.00 79 1011.5
20260905160532 91 0 0.0 0.0 0.00 0.00 0.00 75 1011.5
20260905160057 91 0 0.0 0.0 0.00 0.00 0.00 79 1011.7
20260905155534 91 0 0.0 0.0 0.00 0.00 0.00 77 1011.6
20260905155032 91 0 0.0 0.0 0.00 0.00 0.00 75 1011.7
20260905154548 91 0 0.0 0.0 0.00 0.00 0.00 75 1011.8
20260905154033 90 0 0.0 0.0 0.00 0.00 0.00 82 1011.7
20260905153533 90 0 0.0 0.0 0.00 0.00 0.00 82 1011.8
20260905153101 90 0 0.0 0.0 0.00 0.00 0.00 77 1011.8
20260905152533 89 0 0.0 0.0 0.00 0.00 0.00 76 1011.8
20260905152035 89 0 0.0 0.0 0.00 0.00 0.00 78 1011.7
20260905151558 89 0 0.0 0.0 0.00 0.00 0.00 78 1011.8
20260905151032 89 0 0.0 0.0 0.00 0.00 0.00 79 1011.7
20260905150532 89 0 0.0 0.0 0.00 0.00 0.00 81 1011.7
20260905150054 89 0 0.0 0.0 0.00 0.00 0.00 78 1011.7
20260905145532 90 0 0.0 0.0 0.00 0.00 0.00 77 1011.7
20260905145034 88 0 0.0 0.0 0.00 0.00 0.00 82 1011.6
20260905144548 87 0 0.0 0.0 0.00 0.00 0.00 84 1011.6
20260905144031 87 0 0.0 0.0 0.00 0.00 0.00 84 1011.6
20260905143533 87 0 0.0 0.0 0.00 0.00 0.00 84 1011.6
20260905143056 86 0 0.0 0.0 0.00 0.00 0.00 85 1011.7
20260905142532 86 0 0.0 0.0 0.00 0.00 0.00 84 1011.7
20260905142032 86 0 0.0 0.0 0.00 0.00 0.00 86 1011.6
20260905141601 85 0 0.0 0.0 0.00 0.00 0.00 85 1011.5
20260905141035 85 0 0.0 0.0 0.00 0.00 0.00 86 1011.5
20260905140532 84 0 0.0 0.0 0.00 0.00 0.00 85 1011.4
20260905140100 85 0 0.0 0.0 0.00 0.00 0.00 84 1011.5
20260905135532 85 0 0.0 0.0 0.00 0.00 0.00 85 1011.5
20260905135031 86 0 0.0 0.0 0.00 0.00 0.00 83 1011.5
20260905134546 86 0 0.0 0.0 0.00 0.00 0.00 85 1011.4
20260905134033 85 0 0.0 0.0 0.00 0.00 0.00 85 1011.5
20260905133532 85 0 0.0 0.0 0.00 0.00 0.00 85 1011.6
20260905133056 85 0 0.0 0.0 0.00 0.00 0.00 85 1011.6
20260905132532 84 0 0.0 0.0 0.00 0.00 0.00 86 1011.7
20260905132035 84 0 0.0 0.0 0.00 0.00 0.00 86 1011.6
20260905131612 83 0 0.0 0.0 0.00 0.00 0.00 90 1011.6
20260905131032 82 0 0.0 0.0 0.00 0.00 0.00 89 1011.7
20260905130532 82 0 0.0 0.0 0.00 0.00 0.00 88 1011.7
20260905130054 82 0 0.0 0.0 0.00 0.00 0.00 88 1011.7
20260905125533 82 0 0.0 0.0 0.00 0.00 0.00 89 1011.7
20260905125032 82 0 0.0 0.0 0.00 0.00 0.00 89 1011.7
20260905124555 81 0 0.0 0.0 0.00 0.00 0.00 90 1011.7
20260905124034 80 0 0.0 0.0 0.00 0.00 0.00 93 1011.7
20260905123532 79 0 0.0 0.0 0.00 0.00 0.00 94 1011.7
20260905123100 79 0 0.0 0.0 0.00 0.00 0.00 94 1011.6
20260905122532 79 0 0.0 1.0 0.00 0.00 0.00 94 1011.6
20260905122032 79 0 0.0 1.0 0.00 0.00 0.00 94 1011.6
20260905121553 79 0 0.0 0.0 0.00 0.00 0.00 94 1011.5
20260905121032 78 0 0.0 0.0 0.00 0.00 0.00 94 1011.6
20260905120532 78 0 0.0 0.0 0.00 0.00 0.00 94 1011.5
20260905120053 78 0 0.0 0.0 0.00 0.00 0.00 94 1011.5
20260905115532 78 0 0.0 0.0 0.00 0.00 0.00 94 1011.6
20260905115032 78 0 0.0 0.0 0.00 0.00 0.00 94 1011.7
20260905114552 78 0 0.0 0.0 0.00 0.00 0.00 94 1011.7
20260905114037 78 0 0.0 0.0 0.00 0.00 0.00 94 1011.6
20260905113532 78 0 0.0 0.0 0.00 0.00 0.00 93 1011.7
20260905113046 77 0 0.0 0.0 0.00 0.00 0.00 93 1011.7
20260905112532 77 0 0.0 0.0 0.00 0.00 0.00 93 1011.6
20260905112034 77 0 0.0 0.0 0.00 0.00 0.00 93 1011.6
20260905111556 77 0 0.0 0.0 0.00 0.00 0.00 93 1011.5
20260905111034 77 0 0.0 0.0 0.00 0.00 0.00 93 1011.5
20260905110532 77 0 0.0 0.0 0.00 0.00 0.00 93 1011.5
20260905110053 77 0 0.0 0.0 0.00 0.00 0.00 93 1011.5
20260905105533 77 0 0.0 0.0 0.00 0.00 0.00 92 1011.4
20260905105035 77 0 0.0 0.0 0.00 0.00 0.00 92 1011.4
20260905104556 77 0 0.0 0.0 0.00 0.00 0.00 92 1011.3
20260905104032 77 0 0.0 0.0 0.00 0.00 0.00 92 1011.3
20260905103535 76 0 0.0 1.0 0.00 0.00 0.00 92 1011.3
20260905103051 76 0 0.0 1.0 0.00 0.00 0.00 92 1011.4
20260905102532 76 0 0.0 0.0 0.00 0.00 0.00 92 1011.3
20260905102032 76 0 0.0 0.0 0.00 0.00 0.00 92 1011.3
20260905101556 76 0 0.0 0.0 0.00 0.00 0.00 92 1011.3
20260905101032 76 0 0.0 0.0 0.00 0.00 0.00 92 1011.3
20260905100532 76 0 0.0 0.0 0.00 0.00 0.00 92 1011.2
20260905100118 76 0 0.0 0.0 0.00 0.00 0.00 91 1011.1
20260905095534 76 0 0.0 0.0 0.00 0.00 0.00 91 1011.1
20260905095032 76 0 0.0 0.0 0.00 0.00 0.00 91 1011.1
20260905094552 76 0 0.0 0.0 0.00 0.00 0.00 91 1011.0
20260905094032 76 0 0.0 0.0 0.00 0.00 0.00 91 1011.1
20260905093533 76 0 0.0 0.0 0.00 0.00 0.00 92 1011.1
20260905093049 76 0 0.0 0.0 0.00 0.00 0.00 92 1011.1
20260905092536 76 0 0.0 0.0 0.00 0.00 0.00 92 1011.0
20260905092032 76 0 0.0 0.0 0.00 0.00 0.00 92 1011.1
20260905091558 76 0 0.0 0.0 0.00 0.00 0.00 91 1011.2
20260905091033 76 0 0.0 0.0 0.00 0.00 0.00 91 1011.0
20260905090532 76 0 0.0 0.0 0.00 0.00 0.00 91 1011.0
20260905090122 76 0 0.0 0.0 0.00 0.00 0.00 90 1011.1
20260905085533 76 0 0.0 0.0 0.00 0.00 0.00 90 1011.1
20260905085033 76 0 0.0 0.0 0.00 0.00 0.00 90 1011.0
20260905084551 76 0 0.0 0.0 0.00 0.00 0.00 90 1011.2
20260905084039 76 0 0.0 0.0 0.00 0.00 0.00 89 1011.3
20260905083534 76 0 0.0 0.0 0.00 0.00 0.00 89 1011.3
20260905083053 76 0 0.0 0.0 0.00 0.00 0.00 89 1011.2
20260905082533 76 0 0.0 0.0 0.00 0.00 0.00 89 1011.4
20260905082035 76 0 0.0 0.0 0.00 0.00 0.00 89 1011.4
20260905081548 77 0 0.0 0.0 0.00 0.00 0.00 89 1011.4
20260905081032 77 0 0.0 0.0 0.00 0.00 0.00 88 1011.5
20260905080535 77 0 0.0 0.0 0.00 0.00 0.00 89 1011.5
20260905080058 77 0 0.0 0.0 0.00 0.00 0.00 89 1011.5
20260905075532 77 0 0.0 0.0 0.00 0.00 0.00 89 1011.5
20260905075032 77 0 0.0 0.0 0.00 0.00 0.00 89 1011.4
20260905074604 77 0 0.0 0.0 0.00 0.00 0.00 89 1011.5
20260905074033 77 0 0.0 0.0 0.00 0.00 0.00 89 1011.6
20260905073537 77 0 0.0 0.0 0.00 0.00 0.00 89 1011.6
20260905073049 77 0 0.0 0.0 0.00 0.00 0.00 89 1011.7
20260905072532 77 0 0.0 0.0 0.00 0.00 0.00 88 1011.8
20260905072034 77 0 0.0 0.0 0.00 0.00 0.00 88 1011.7
20260905071555 77 0 0.0 0.0 0.00 0.00 0.00 89 1011.5
20260905071036 77 0 0.0 0.0 0.00 0.00 0.00 89 1011.4
20260905070532 77 0 0.0 0.0 0.00 0.00 0.00 89 1011.6
20260905070051 77 0 0.0 0.0 0.00 0.00 0.00 90 1011.3
20260905065532 77 0 0.0 0.0 0.00 0.00 0.00 90 1011.3
20260905065037 77 0 0.0 0.0 0.00 0.00 0.00 90 1011.5
20260905064554 76 0 0.0 0.0 0.00 0.00 0.00 90 1011.6
20260905064035 77 0 0.0 0.0 0.00 0.00 0.00 90 1011.6
20260905063532 77 0 0.0 0.0 0.00 0.00 0.00 90 1011.8
20260905063052 77 0 0.0 0.0 0.00 0.00 0.00 90 1011.6
20260905062531 77 0 0.0 0.0 0.00 0.00 0.00 89 1011.6
20260905062034 77 0 0.0 0.0 0.00 0.00 0.00 89 1011.9
20260905061553 77 0 0.0 0.0 0.00 0.00 0.00 89 1012.1
20260905061031 77 0 0.0 0.0 0.00 0.00 0.00 89 1012.2
20260905060531 77 0 0.0 0.0 0.00 0.00 0.00 89 1012.3
20260905060054 77 0 0.0 0.0 0.00 0.00 0.00 89 1012.1
20260905055536 77 0 0.0 0.0 0.00 0.00 0.00 89 1012.2
20260905055032 77 0 0.0 0.0 0.00 0.00 0.00 89 1012.2
20260905054543 77 0 0.0 0.0 0.00 0.00 0.00 89 1012.1
20260905054032 77 0 0.0 0.0 0.00 0.00 0.00 88 1012.3
20260905053532 77 0 0.0 0.0 0.00 0.00 0.00 88 1012.5
20260905053053 77 0 0.0 0.0 0.00 0.00 0.00 88 1012.6
20260905052531 77 0 0.0 0.0 0.00 0.00 0.00 88 1012.5
20260905052033 77 0 0.0 0.0 0.00 0.00 0.00 88 1012.6
20260905051550 77 0 0.0 0.0 0.00 0.00 0.00 89 1012.6
20260905051033 76 0 0.0 0.0 0.00 0.00 0.00 89 1012.7
20260905050533 76 0 0.0 0.0 0.00 0.00 0.00 90 1012.8
20260905050047 76 0 0.0 0.0 0.00 0.00 0.00 91 1012.7
20260905045533 76 0 0.0 0.0 0.00 0.00 0.00 92 1012.5
20260905045033 76 0 0.0 0.0 0.00 0.00 0.00 92 1012.4
20260905044556 76 0 0.0 0.0 0.00 0.00 0.00 92 1012.3
20260905044032 76 0 0.0 0.0 0.00 0.00 0.00 92 1012.2
20260905043536 76 0 0.0 0.0 0.00 0.00 0.00 92 1012.3
20260905043053 76 0 0.0 0.0 0.00 0.00 0.00 92 1012.4
20260905042532 76 0 0.0 0.0 0.00 0.00 0.00 92 1012.5
20260905042032 76 0 0.0 0.0 0.00 0.00 0.00 92 1012.4
20260905041551 76 0 0.0 0.0 0.00 0.00 0.00 91 1012.5
20260905041032 76 0 0.0 0.0 0.00 0.00 0.00 90 1012.9
20260905040531 76 0 0.0 0.0 0.00 0.00 0.00 89 1012.1
20260905035532 77 0 0.0 2.0 0.00 0.00 0.00 85 1013.0
20260905035031 77 0 0.0 2.0 0.00 0.00 0.00 84 1013.2
20260905034553 78 0 0.0 1.0 0.00 0.00 0.00 85 1013.3
20260905034031 77 0 0.0 1.0 0.00 0.00 0.00 82 1013.1
20260905033534 77 0 0.0 1.0 0.00 0.00 0.00 81 1013.3
20260905033052 77 0 0.0 0.0 0.00 0.00 0.00 81 1014.0
20260905032532 78 0 0.0 1.0 0.00 0.00 0.00 82 1014.4
20260905032033 78 0 0.0 1.0 0.00 0.00 0.00 79 1014.3
20260905031607 78 0 0.0 2.0 0.00 0.00 0.00 79 1014.9
20260905031032 78 0 0.0 3.0 0.00 0.00 0.00 81 1015.3
20260905030532 78 0 0.0 3.0 0.00 0.00 0.00 81 1015.6
20260905030054 78 0 0.0 6.0 0.00 0.00 0.00 80 1015.8
20260905025534 79 0 0.0 6.0 0.00 0.00 0.00 81 1016.3
20260905025032 79 0 0.0 6.0 0.00 0.00 0.00 82 1016.4
20260905024548 79 0 0.0 0.0 0.00 0.00 0.00 83 1016.6
20260905024033 80 0 0.0 6.0 0.00 0.00 0.00 84 1016.7
20260905023533 80 0 0.0 6.0 0.00 0.00 0.00 85 1016.8
20260905023048 81 0 0.0 4.0 0.00 0.00 0.00 85 1016.8
20260905022532 81 0 0.0 4.0 0.00 0.00 0.00 86 1016.4
20260905022032 81 0 0.0 0.0 0.00 0.00 0.00 89 1016.4
20260905021558 81 0 0.0 0.0 0.00 0.00 0.00 90 1016.3
20260905021032 81 0 0.0 0.0 0.00 0.00 0.00 91 1016.2
20260905020536 81 0 0.0 0.0 0.00 0.00 0.00 92 1016.3
20260905020057 81 0 0.0 0.0 0.00 0.00 0.00 91 1015.7
20260905015532 81 0 0.0 0.0 0.00 0.00 0.00 91 1015.4
20260905015032 81 0 0.0 0.0 0.00 0.00 0.00 90 1015.3
20260905014553 81 0 0.0 0.0 0.00 0.00 0.00 90 1015.2
20260905014032 81 0 0.0 0.0 0.00 0.00 0.00 90 1015.3
20260905013532 81 0 0.0 0.0 0.00 0.00 0.00 90 1015.3
20260905013045 81 0 0.0 0.0 0.00 0.00 0.00 90 1015.4
20260905012533 81 0 0.0 1.0 0.00 0.00 0.00 90 1015.2
20260905012034 82 0 0.0 1.0 0.00 0.00 0.00 89 1014.9
20260905011556 82 0 0.0 0.0 0.00 0.00 0.00 89 1014.3
20260905011032 82 0 0.0 0.0 0.00 0.00 0.00 89 1014.0
20260905010533 82 0 0.0 0.0 0.00 0.00 0.00 88 1014.0
20260905010106 82 0 0.0 0.0 0.00 0.00 0.00 88 1013.9
20260905005536 82 0 0.0 0.0 0.00 0.00 0.00 88 1013.9
20260905005033 81 0 0.0 0.0 0.00 0.00 0.00 88 1013.8
20260905004551 81 0 0.0 0.0 0.00 0.00 0.00 88 1013.8
20260905004035 82 0 0.0 0.0 0.00 0.00 0.00 88 1013.7
20260905003533 82 0 0.0 0.0 0.00 0.00 0.00 87 1013.8
20260905003047 82 0 0.0 0.0 0.00 0.00 0.00 87 1013.9
20260905002536 82 0 0.0 0.0 0.00 0.00 0.00 86 1013.9
20260905002034 82 0 0.0 0.0 0.00 0.00 0.00 87 1013.8
20260905001551 82 0 0.0 0.0 0.00 0.00 0.00 86 1013.7
20260905001032 82 0 0.0 0.0 0.00 0.00 0.00 86 1013.7
20260905000533 82 0 0.0 0.0 0.00 0.00 0.00 85 1013.6
20260905000105 82 0 0.0 0.0 0.00 0.00 0.00 85 1013.6
20260904235532 82 0 0.0 0.0 0.00 0.00 0.00 85 1013.6
20260904235032 83 0 0.0 0.0 0.00 0.00 0.00 84 1013.5
20260904234551 82 0 0.0 1.0 0.00 0.00 0.00 84 1013.5
20260904234033 83 0 0.0 1.0 0.00 0.00 0.00 83 1013.4
20260904233533 83 0 0.0 3.0 0.00 0.00 0.00 84 1013.4
20260904233056 83 0 0.0 3.0 0.00 0.00 0.00 83 1013.3
20260904232533 83 0 0.0 0.0 0.00 0.00 0.00 83 1013.3
20260904232036 84 0 0.0 0.0 0.00 0.00 0.00 84 1013.4
20260904231554 84 0 0.0 0.0 0.00 0.00 0.00 84 1013.4
20260904231032 84 0 0.0 0.0 0.00 0.00 0.00 84 1013.3
20260904230532 84 0 0.0 0.0 0.00 0.00 0.00 84 1013.2
20260904230107 84 0 0.0 0.0 0.00 0.00 0.00 84 1013.2
20260904225533 84 0 0.0 0.0 0.00 0.00 0.00 84 1013.2
20260904225037 84 0 0.0 0.0 0.00 0.00 0.00 83 1013.0
20260904224550 85 0 0.0 0.0 0.00 0.00 0.00 83 1013.0
20260904224035 85 0 0.0 0.0 0.00 0.00 0.00 82 1013.2
20260904223533 85 0 0.0 1.0 0.00 0.00 0.00 83 1013.1
20260904223057 85 0 0.0 1.0 0.00 0.00 0.00 82 1013.2
20260904222532 86 0 0.0 0.0 0.00 0.00 0.00 82 1013.2
20260904222032 86 0 0.0 0.0 0.00 0.00 0.00 82 1013.2
20260904221547 86 0 0.0 0.0 0.00 0.00 0.00 82 1013.2
20260904221033 86 0 0.0 0.0 0.00 0.00 0.00 82 1013.3
20260904220530 86 0 0.0 1.0 0.00 0.00 0.00 84 1013.2
20260904220116 86 0 0.0 1.0 0.00 0.00 0.00 84 1013.1
20260904215532 86 0 0.0 1.0 0.00 0.00 0.00 84 1013.0
20260904215032 86 0 0.0 0.0 0.00 0.00 0.00 84 1013.0
20260904214553 86 0 0.0 0.0 0.00 0.00 0.00 85 1013.0
20260904214032 86 0 0.0 0.0 0.00 0.00 0.00 85 1012.9
20260904213534 86 0 0.0 0.0 0.00 0.00 0.00 84 1013.0
20260904213045 86 0 0.0 0.0 0.00 0.00 0.00 84 1013.2
20260904212536 86 0 0.0 0.0 0.00 0.00 0.00 84 1013.2
20260904212032 87 0 0.0 0.0 0.00 0.00 0.00 83 1013.1
20260904211556 87 0 0.0 0.0 0.00 0.00 0.00 85 1012.9
20260904211033 87 0 0.0 0.0 0.00 0.00 0.00 83 1012.8
20260904210533 87 0 0.0 0.0 0.00 0.00 0.00 84 1012.7
20260904210051 87 0 0.0 0.0 0.00 0.00 0.00 83 1012.7
20260904205532 87 0 0.0 1.0 0.00 0.00 0.00 84 1012.7
20260904205032 87 0 0.0 1.0 0.00 0.00 0.00 84 1012.5
20260904204550 87 0 0.0 0.0 0.00 0.00 0.00 82 1012.7
20260904204033 87 0 0.0 0.0 0.00 0.00 0.00 84 1012.8
20260904203533 87 0 0.0 0.0 0.00 0.00 0.00 83 1012.9
20260904203056 88 0 0.0 0.0 0.00 0.00 0.00 82 1013.0
20260904202533 88 0 0.0 0.0 0.00 0.00 0.00 82 1013.2
20260904202029 88 0 0.0 0.0 0.00 0.00 0.00 82 1013.2
20260904201558 88 0 0.0 0.0 0.00 0.00 0.00 82 1013.2
20260904201032 88 0 0.0 1.0 0.00 0.00 0.00 80 1013.3
20260904200535 88 0 0.0 1.0 0.00 0.00 0.00 81 1013.4
20260904200059 88 0 0.0 0.0 0.00 0.00 0.00 79 1013.5
20260904195532 87 0 0.0 0.0 0.00 0.00 0.00 79 1013.6
20260904195032 87 0 0.0 0.0 0.00 0.00 0.00 81 1013.8
20260904194559 88 0 0.0 0.0 0.00 0.00 0.00 81 1013.9
20260904194034 88 0 0.0 0.0 0.00 0.00 0.00 79 1014.0
20260904193536 88 0 0.0 0.0 0.00 0.00 0.00 80 1014.0
20260904193056 88 0 0.0 0.0 0.00 0.00 0.00 80 1014.1
20260904192535 88 0 0.0 0.0 0.00 0.00 0.00 81 1014.2
20260904192032 88 0 0.0 0.0 0.00 0.00 0.00 79 1014.3
20260904191552 88 0 0.0 0.0 0.00 0.00 0.00 81 1014.4
20260904191033 89 0 0.0 0.0 0.00 0.00 0.00 81 1014.4
20260904190532 88 0 0.0 0.0 0.00 0.00 0.00 79 1014.5
20260904190048 88 0 0.0 0.0 0.00 0.00 0.00 77 1014.5
20260904185532 89 0 0.0 0.0 0.00 0.00 0.00 81 1014.6
20260904185032 89 0 0.0 0.0 0.00 0.00 0.00 81 1014.6
20260904184610 89 0 0.0 0.0 0.00 0.00 0.00 80 1014.7
20260904184033 89 0 0.0 0.0 0.00 0.00 0.00 80 1014.8
20260904183533 89 0 0.0 0.0 0.00 0.00 0.00 78 1014.9
20260904183052 89 0 0.0 0.0 0.00 0.00 0.00 82 1014.8
20260904182532 89 0 0.0 0.0 0.00 0.00 0.00 81 1014.9
20260904182032 89 0 0.0 0.0 0.00 0.00 0.00 81 1015.0
20260904181551 89 0 0.0 0.0 0.00 0.00 0.00 80 1015.1
20260904181032 89 0 0.0 0.0 0.00 0.00 0.00 80 1015.2
20260904180532 89 0 0.0 0.0 0.00 0.00 0.00 80 1015.3
20260904175532 89 0 0.0 0.0 0.00 0.00 0.00 79 1015.4
20260904175032 90 0 0.0 0.0 0.00 0.00 0.00 80 1015.4
20260904174614 90 0 0.0 0.0 0.00 0.00 0.00 77 1015.5
20260904174032 90 0 0.0 0.0 0.00 0.00 0.00 76 1015.5
20260904173532 90 0 0.0 0.0 0.00 0.00 0.00 79 1015.5
20260904173052 90 0 0.0 0.0 0.00 0.00 0.00 77 1015.4
20260904172533 91 0 0.0 0.0 0.00 0.00 0.00 77 1015.5
20260904172031 90 0 0.0 0.0 0.00 0.00 0.00 73 1015.5
20260904171602 91 0 0.0 0.0 0.00 0.00 0.00 76 1015.5
20260904171035 91 0 0.0 0.0 0.00 0.00 0.00 76 1015.6
20260904170532 91 0 0.0 0.0 0.00 0.00 0.00 76 1015.6
20260904170053 90 0 0.0 0.0 0.00 0.00 0.00 78 1015.7